(202092) Algirdas = 2004 TD17 = 2008 PO18

Discovered at Moletai on 2004-10-11 by K. Cernis.
(202092) Algirdas = 2004 TD17

Algirdas (1296-1377) was monarch of medieval Lithuania. He ruled the Lithuanians and Ruthenians from 1345 to 1377. With the help of his brother Kestutis he created an empire stretching from the present Baltic states to the Black Sea, and to within fifty miles of Moscow. [Ref: Minor Planet Circ. 98715]

Orbit

Orbit type: Main Belt

Note: WebGL enabled browser required.

epoch2024-03-31.0
epoch JD2460400.5
perihelion date2021-08-08.50151
perihelion JD2459435.00151
argument of perihelion (°)334.96953
ascending node (°)5.47579
inclination (°)13.38132
eccentricity0.2555279
perihelion distance (AU)1.9663601
Tisserand w.r.t. Jupiter3.3
ΔV w.r.t. Earth (km/sec)9.7
semimajor axis (AU)2.6412812
mean anomaly (°)221.68356
mean daily motion (°/day)0.22960530
aphelion distance (AU)3.316
period (years)4.29
P-vector [x]0.94122638
P-vector [y]-0.25764670
P-vector [z]-0.21842866
Q-vector [x]0.33705368
Q-vector [y]0.75868587
Q-vector [z]0.55748593
absolute magnitude17.02
phase slope0.15
uncertainty0
referenceMPEC 2024-F14
observations used342
oppositions13
arc length (days)11878
first opposition used1991
last opposition used2024
residual rms (arc-secs)0.68
perturbers coarse indicatorM-v
perturbers precise indicator003Ek
first observation date used1991-09-09.0
last observation date used2024-03-17.0
computer nameMPCLINUX
JD of orbit computation2456639.721523
perihelion JD uncertainty (days)7.2253E-05
argument of perihelion uncertainty (°)2.9132E-05
ascending node uncertainty (°)2.2303E-05
inclination uncertainty (°)1.3045E-05
eccentricity uncertainty 8.4190E-08
perihelion distance uncertainty (AU)2.2397E-07
Minimum Orbit Intersection Distances (in AU)
for orbit epoch: 2460400.5, reference: E2024-G17
Mercury1.57207
Venus1.2396
Earth0.96723
Mars0.5894
Jupiter2.11795
Saturn6.00665
Uranus15.1355
Neptune27.1404

Observations

349 total observations over interval: 1991 09 09.46575 – 2024 03 17.518417
These data are available for download (format description).

Date (UT) J2000 RA J2000 Dec Magn Location Ref
1991 09 09.46575 01 10 01.37 +05 57 22.6 20.1 V 691 – Steward Observatory, Kitt Peak-Spacewatch MPS 260584
1991 09 09.48136 01 10 00.68 +05 57 28.4   691 – Steward Observatory, Kitt Peak-Spacewatch MPS 260584
1991 09 09.49627 01 10 00.02 +05 57 34.2   691 – Steward Observatory, Kitt Peak-Spacewatch MPS 260584
1991 10 10.23756 00 38 42.99 +08 20 07.4 19.6 V 691 – Steward Observatory, Kitt Peak-Spacewatch MPS 260584
1991 10 10.25887 00 38 41.51 +08 20 12.0   691 – Steward Observatory, Kitt Peak-Spacewatch MPS 260584
1991 10 10.28027 00 38 40.03 +08 20 15.4   691 – Steward Observatory, Kitt Peak-Spacewatch MPS 260584
2004 09 16.33668 02 27 43.78 +20 28 27.4 19.1 R 699 – Lowell Observatory-LONEOS MPS 264594
2004 09 16.35627 02 27 43.26 +20 28 38.7   699 – Lowell Observatory-LONEOS MPS 264594
2004 09 16.37586 02 27 43.00 +20 28 50.6   699 – Lowell Observatory-LONEOS MPS 264594
2004 09 16.39543 02 27 42.38 +20 28 59.3   699 – Lowell Observatory-LONEOS MPS 264594
2004 09 21.412067 02 25 39.227 +21 12 22.09 20.28 V 645 – Apache Point-Sloan Digital Sky Survey MPS 390251
2004 09 21.415539 02 25 39.110 +21 12 23.81 21.19   645 – Apache Point-Sloan Digital Sky Survey MPS 390251
2004 10 07.37606 02 13 17.10 +23 02 30.9 19.2   644 – Palomar Mountain/NEAT MPS 117704
2004 10 07.40274 02 13 15.39 +23 02 39.3 19.3   644 – Palomar Mountain/NEAT MPS 117704
2004 10 07.42412 02 13 14.04 +23 02 46.1 19.3   644 – Palomar Mountain/NEAT MPS 117704
2004 10 10.26885 02 10 15.29 +23 16 55.1 19.6   704 – Lincoln Laboratory ETS, New Mexico MPS 117704
2004 10 10.27986 02 10 14.53 +23 16 59.7 19.8   704 – Lincoln Laboratory ETS, New Mexico MPS 117704
2004 10 10.29095 02 10 13.63 +23 17 02.1 19.8   704 – Lincoln Laboratory ETS, New Mexico MPS 117704
2004 10 10.30196 02 10 13.01 +23 17 05.6 19.8   704 – Lincoln Laboratory ETS, New Mexico MPS 117704
2004 10 11.89692 02 08 28.10 +23 24 10.3 19.0 R 152 – Moletai Astronomical Observatory MPS 116791
2004 10 11.91667 02 08 26.15 +23 24 18.3 19.0 R 152 – Moletai Astronomical Observatory MPS 116791
2004 10 11.92495 02 08 26.15 +23 24 18.3 19.0 R 152 – Moletai Astronomical Observatory MPS 116791
2004 10 11.96689 02 08 23.38 +23 24 29.5 18.7 R 152 – Moletai Astronomical Observatory MPS 116791
2004 10 11.99788 02 08 21.03 +23 24 36.6 18.2 R 152 – Moletai Astronomical Observatory MPS 116791
2004 10 12.02110 02 08 19.48 +23 24 41.4 18.7 R 152 – Moletai Astronomical Observatory MPS 116791
2004 10 14.10946 02 05 57.56 +23 33 05.2 19.2 R 152 – Moletai Astronomical Observatory MPS 119304
2004 10 14.12744 02 05 56.27 +23 33 09.8 19.0 R 152 – Moletai Astronomical Observatory MPS 119304
2004 10 14.43875 02 05 34.85 +23 34 22.4 19.4   644 – Palomar Mountain/NEAT MPS 116791
2004 10 14.46012 02 05 33.29 +23 34 27.1 19.4   644 – Palomar Mountain/NEAT MPS 116791
2004 10 14.48156 02 05 31.77 +23 34 31.5 19.4   644 – Palomar Mountain/NEAT MPS 116791
2004 10 15.30289 02 04 35.09 +23 37 30.0 19.5   704 – Lincoln Laboratory ETS, New Mexico MPS 117704
2004 10 15.31396 02 04 34.28 +23 37 32.2 20.0   704 – Lincoln Laboratory ETS, New Mexico MPS 117704
2004 10 15.32504 02 04 33.50 +23 37 33.9 19.9   704 – Lincoln Laboratory ETS, New Mexico MPS 117704
2004 10 15.33612 02 04 32.70 +23 37 35.6 20.2   704 – Lincoln Laboratory ETS, New Mexico MPS 117704
2004 10 15.34720 02 04 31.88 +23 37 38.8 19.9   704 – Lincoln Laboratory ETS, New Mexico MPS 117704
2007 03 18.27496 13 16 47.78 -11 11 28.8 21.5 V 691 – Steward Observatory, Kitt Peak-Spacewatch MPS 260584
2007 03 18.29260 13 16 46.91 -11 11 27.7 21.8 V 691 – Steward Observatory, Kitt Peak-Spacewatch MPS 260584
2007 03 18.31371 13 16 45.89 -11 11 26.7 22.1 V 691 – Steward Observatory, Kitt Peak-Spacewatch MPS 260584
2008 08 02.70128 22 54 34.20 -26 15 49.9 19.6 V E12 – Siding Spring Survey MPS 260264
2008 08 02.70779 22 54 33.94 -26 15 50.9 19.3 V E12 – Siding Spring Survey MPS 260264
2008 08 02.71424 22 54 33.66 -26 15 50.7 19.9 V E12 – Siding Spring Survey MPS 260264
2008 08 02.72071 22 54 33.44 -26 15 50.6 19.4 V E12 – Siding Spring Survey MPS 260264
2008 08 23.48465 22 35 38.86 -25 50 36.0 18.8 V E12 – Siding Spring Survey MPS 260264
2008 08 23.49348 22 35 38.32 -25 50 34.6 18.7 V E12 – Siding Spring Survey MPS 260264
2008 08 23.50233 22 35 37.68 -25 50 32.8 18.8 V E12 – Siding Spring Survey MPS 260264
2008 08 23.51113 22 35 36.99 -25 50 30.9 18.9 V E12 – Siding Spring Survey MPS 260264
2008 09 20.54051 22 08 18.88 -22 34 41.1 20.0 V E12 – Siding Spring Survey MPS 260264
2008 09 20.55112 22 08 18.49 -22 34 35.8 19.9 V E12 – Siding Spring Survey MPS 260264
2008 09 20.56174 22 08 17.95 -22 34 28.9 19.7 V E12 – Siding Spring Survey MPS 260264
2008 09 20.57234 22 08 17.70 -22 34 23.0 19.4 V E12 – Siding Spring Survey MPS 260264
2008 09 29.20722 22 04 06.16 -21 00 12.4 19.5 V 703 – Catalina Sky Survey MPS 260264
2008 09 29.21448 22 04 05.95 -21 00 06.3 19.6 V 703 – Catalina Sky Survey MPS 260264
2008 09 29.22186 22 04 05.88 -21 00 00.3 19.4 V 703 – Catalina Sky Survey MPS 260264
2008 09 29.22915 22 04 05.73 -20 59 55.6 19.4 V 703 – Catalina Sky Survey MPS 260264
2008 10 27.14315 22 08 52.00 -15 05 32.1 20.1 V G96 – Mt. Lemmon Survey MPS 261506
2008 10 27.14802 22 08 52.18 -15 05 28.6 20.2 V G96 – Mt. Lemmon Survey MPS 261506
2008 10 27.15289 22 08 52.33 -15 05 24.5 20.1 V G96 – Mt. Lemmon Survey MPS 261506
2008 10 27.15786 22 08 52.51 -15 05 20.5 19.8 V G96 – Mt. Lemmon Survey MPS 261506
2008 11 21.12618 22 31 45.84 -09 23 36.8 20.6 V G96 – Mt. Lemmon Survey MPS 265233
2008 11 21.13182 22 31 46.20 -09 23 32.3 20.7 V G96 – Mt. Lemmon Survey MPS 265233
2008 11 21.13745 22 31 46.63 -09 23 27.4 20.7 V G96 – Mt. Lemmon Survey MPS 265233
2008 11 21.14311 22 31 47.02 -09 23 22.5 20.6 V G96 – Mt. Lemmon Survey MPS 265233
2008 11 24.06192 22 35 15.21 -08 42 41.6 20.8 V G96 – Mt. Lemmon Survey MPS 266434
2008 11 24.06853 22 35 15.72 -08 42 35.8 20.9 V G96 – Mt. Lemmon Survey MPS 266434
2008 11 24.07510 22 35 16.15 -08 42 30.5 20.9 V G96 – Mt. Lemmon Survey MPS 266434
2008 11 24.08182 22 35 16.58 -08 42 25.1 21.3 V G96 – Mt. Lemmon Survey MPS 266434
2011 03 29.26832 11 49 44.58 +03 15 44.2 22.2 V G96 – Mt. Lemmon Survey MPS 376937
2011 03 29.27352 11 49 44.29 +03 15 45.5 21.7 V G96 – Mt. Lemmon Survey MPS 376937
2011 03 29.27877 11 49 44.00 +03 15 46.4 21.2 V G96 – Mt. Lemmon Survey MPS 376937
2011 03 29.28406 11 49 43.71 +03 15 47.0 21.7 V G96 – Mt. Lemmon Survey MPS 376937
2011 04 02.30621 11 46 08.329 +03 25 43.35 22.0 w F51 – Pan-STARRS 1, Haleakala MPS 378435
2011 04 02.32134 11 46 07.527 +03 25 45.31 22.1 w F51 – Pan-STARRS 1, Haleakala MPS 378435
2011 04 02.33750 11 46 06.653 +03 25 47.39 22.1 w F51 – Pan-STARRS 1, Haleakala MPS 378435
2011 04 02.35259 11 46 05.840 +03 25 49.62 21.9 w F51 – Pan-STARRS 1, Haleakala MPS 378435
2013 11 25.50701 06 26 53.660 +42 52 38.74 20.7 i F51 – Pan-STARRS 1, Haleakala MPS 489573
2013 11 25.52078 06 26 52.854 +42 52 43.45 20.9 i F51 – Pan-STARRS 1, Haleakala MPS 489573
2015 02 16.40456 11 14 27.596 +14 07 50.24 21.7 w F51 – Pan-STARRS 1, Haleakala MPS 582533
2015 02 16.42745 11 14 26.406 +14 07 55.09 21.6 w F51 – Pan-STARRS 1, Haleakala MPS 582533
2015 02 16.43891 11 14 25.812 +14 07 57.70 21.7 w F51 – Pan-STARRS 1, Haleakala MPS 582533
2015 03 27.20742 10 39 48.66 +15 41 37.5 21.9 V G96 – Mt. Lemmon Survey MPS 594486
2015 03 27.21472 10 39 48.28 +15 41 38.1 22.5 V G96 – Mt. Lemmon Survey MPS 594486
2015 03 27.22201 10 39 48.03 +15 41 37.6 22.2 V G96 – Mt. Lemmon Survey MPS 594486
2015 03 27.22932 10 39 47.63 +15 41 38.0 21.9 V G96 – Mt. Lemmon Survey MPS 594486
2017 09 01.54599 03 32 08.133 +26 14 30.51 20.6 i F51 – Pan-STARRS 1, Haleakala MPS 814587
2017 09 01.55698 03 32 08.668 +26 14 37.81 20.8 i F51 – Pan-STARRS 1, Haleakala MPS 814587
2017 09 01.56803 03 32 09.161 +26 14 45.09 20.5 i F51 – Pan-STARRS 1, Haleakala MPS 814587
